BEIDOU-3 M16 (C35)

Last updated on Fri Jul 04 2025 00:03:20 GMT+0000 (Coordinated Universal Time)

1 43647U 18078A 25183.46642742 -.00000106 00000+0 00000+0 0 9998 2 43647 54.4056 312.2240 0006648 32.0714 327.9694 1.86232369 45644
UTC large
Height (km)
Speed (km/s)
/
Latitude / Longitude
Inclination (degrees)
Orbital Period (minutes)
Azimuth
Elevation
Range (km)
Doppler Factor

Next 0 passes for location: London (51.5072 / 0.1276)

Sorry there are no passes over London.